Location: Kam�li
(14.6864°N, 3.1482°W)
Time: 01:45:03
(UTC+00:00)

Delta 7925 Rocket - Pass Details

Date: 29 October 2020
Orbit: 645 x 1648 km, 26.3° (Epoch: 02 December)

Event Time Altitude Azimuth Distance (km) Brightness Sun altitude
Rises 18:31:37 0° 254° (WSW) 4,052 9.4 -11.8°
Reaches altitude 10° 18:34:48 10° 257° (WSW) 2,921 8.0 -12.6°
Maximum altitude 18:41:42 64° 338° (NNW) 977 4.1 -14.2°
Enters shadow 18:45:34 20° 55° (NE) 1,769 4.8 -15.1°
